Theta_e
342 342 343 349 351 351 350 351 351 351 351 349 348 348 348 347 347 348 348 347 347 347 347 347 346 345 344 343 342 342 341 341 340 340 340 340 340 343 348 347 346 344 342 342 341 341 341 341 340 340 342 342 342 342 341 342 342 342 339 336 337 338 339 339 340 339 339 340 342 343 342 343 342 343 344 344 345 344 343 343 343 341 340 342 345
341 342 342 345 351 351 350 351 351 351 350 350 349 348 347 347 347 347 347 347 347 347 347 346 345 345 344 343 343 342 341 341 340 339 339 339 339 344 347 346 346 344 342 341 340 340 340 340 340 341 341 341 341 342 343 342 340 338 337 336 336 337 338 338 338 338 338 338 338 339 339 339 341 341 341 342 343 343 342 343 343 339 338 343 343
343 344 343 345 350 350 350 350 351 351 350 349 348 347 347 347 347 347 347 346 347 347 346 346 345 344 344 344 343 342 342 341 340 340 340 340 345 345 346 346 346 342 341 341 340 339 339 339 341 341 342 341 342 343 342 339 338 337 337 337 335 336 338 338 338 338 337 337 337 338 339 338 338 339 339 339 340 340 341 341 342 341 338 342 342
343 345 343 346 347 349 350 350 349 350 349 349 348 347 347 347 347 346 346 346 346 346 345 345 345 344 344 344 342 341 341 341 340 341 344 347 346 346 345 345 345 340 339 340 339 339 339 339 340 341 341 342 343 343 341 338 338 338 338 337 336 336 338 338 338 338 337 336 335 333 332 330 333 337 339 339 339 339 338 338 339 340 341 339 339
343 345 343 344 346 347 350 350 349 349 349 348 348 347 347 347 346 346 346 346 347 346 345 345 345 345 343 343 342 342 341 340 340 344 347 347 346 345 345 344 343 339 339 340 338 339 339 340 341 341 342 341 342 341 339 337 337 337 338 338 336 336 337 337 336 336 336 335 334 330 325 328 330 336 339 339 338 337 337 337 337 338 338 339 339
343 344 343 343 344 346 349 350 350 349 349 348 348 347 347 347 347 346 346 346 346 346 345 345 344 343 343 342 343 342 341 340 340 342 346 346 345 345 345 344 342 339 340 339 338 338 340 340 340 342 341 341 341 341 339 340 341 341 340 340 339 339 338 338 338 337 335 334 332 326 325 326 329 332 338 338 338 337 336 336 336 337 336 336 338
343 343 343 343 343 345 346 350 350 349 349 348 348 347 347 346 346 346 346 346 346 346 344 344 344 343 343 342 342 342 341 340 340 343 343 345 345 344 344 344 341 339 339 339 339 340 339 340 340 340 340 340 341 341 341 341 341 342 341 341 341 340 339 338 337 337 335 331 327 327 327 328 329 332 338 339 340 340 340 340 340 339 338 338 337
343 343 343 343 343 344 346 350 350 349 349 348 348 347 347 346 346 346 346 346 346 345 344 344 344 344 343 342 342 341 341 340 339 342 342 343 342 343 342 340 340 339 338 338 338 338 338 339 339 340 340 339 340 341 341 341 341 341 342 341 340 339 338 337 336 335 335 330 329 329 330 331 331 331 340 341 341 341 340 340 340 341 341 341 337
342 343 343 342 343 344 346 348 349 349 349 348 348 348 347 346 346 345 346 346 346 345 344 344 344 343 343 343 342 341 341 341 340 340 341 341 341 341 341 341 339 337 337 337 337 338 337 339 340 339 339 339 339 339 340 340 341 341 341 340 339 338 337 336 335 333 331 330 331 330 330 331 332 333 339 340 340 340 339 338 338 340 340 337 337
342 342 343 342 342 343 345 348 349 349 349 349 348 348 346 346 345 345 345 345 345 345 344 344 343 344 343 342 342 341 340 340 340 339 338 338 339 340 339 339 338 337 339 338 337 338 339 339 339 338 339 339 338 338 338 338 340 340 340 339 339 338 337 335 333 332 329 329 330 332 333 335 331 332 337 343 341 340 338 335 335 335 335 336 336
341 342 342 342 342 343 347 349 349 349 348 348 348 347 347 346 345 345 345 345 345 345 343 343 343 342 342 341 340 340 340 339 339 338 337 338 338 338 338 336 336 335 336 337 337 338 338 339 337 338 339 339 337 337 337 337 338 338 339 338 337 336 335 334 331 328 329 329 329 330 334 336 331 333 337 341 341 339 336 335 335 336 336 336 337
341 341 342 341 344 342 346 348 348 349 348 348 347 347 347 346 346 345 345 345 345 344 344 343 343 343 342 341 340 339 338 337 336 336 336 335 335 336 336 336 335 335 335 336 336 337 338 338 337 338 337 337 336 336 336 336 336 337 336 336 335 334 333 331 328 327 328 328 329 331 331 331 331 332 339 340 339 339 336 336 335 335 338 337 336
341 341 341 341 341 340 344 347 347 348 348 348 348 347 346 346 346 345 345 345 345 344 342 342 342 342 341 341 340 339 338 338 337 337 336 336 335 336 335 335 335 335 335 335 336 337 337 337 337 337 336 335 336 336 336 336 335 334 334 333 332 331 330 329 326 327 328 328 329 329 330 330 331 338 338 338 340 337 337 336 334 337 335 335 336
341 341 341 341 341 343 342 344 346 347 348 348 347 347 346 346 346 345 345 345 344 344 343 343 342 342 341 340 339 338 338 338 338 337 337 336 336 336 335 335 335 335 335 335 335 335 336 336 336 335 335 335 335 335 334 334 334 334 333 332 330 329 326 325 326 325 328 328 329 329 329 330 332 335 339 337 336 338 337 336 336 335 336 336 334
340 341 342 341 340 341 342 341 343 344 346 347 347 346 346 345 345 345 344 344 344 343 342 342 342 341 341 340 339 339 338 337 337 337 336 336 336 335 334 334 334 334 334 334 334 334 334 336 335 334 335 334 334 334 334 334 334 333 332 331 329 327 325 322 323 324 325 328 328 329 330 332 335 337 336 338 338 338 337 336 335 335 334 334 334
340 341 342 342 340 339 340 341 339 341 342 344 344 345 345 346 345 345 344 344 344 343 342 341 341 340 340 339 339 338 338 337 337 336 336 335 335 335 334 334 333 333 333 333 333 333 333 334 333 333 334 334 334 334 334 333 332 331 330 329 327 326 324 322 321 323 323 325 327 328 329 331 335 337 335 337 337 337 336 335 335 335 333 333 332
340 340 341 341 340 340 339 340 337 335 337 339 340 342 343 344 345 345 344 344 343 342 342 341 340 339 339 339 338 337 337 336 336 335 335 335 334 333 333 333 333 333 333 332 332 334 333 333 332 332 333 333 333 333 332 332 331 329 328 327 326 325 323 322 321 321 323 324 325 326 328 329 334 336 337 337 336 335 334 334 333 333 330 329 329
339 339 339 339 339 339 339 338 337 337 338 336 334 338 340 343 343 342 342 342 342 342 342 340 339 339 338 337 336 336 337 336 335 335 334 333 332 332 332 332 332 332 332 331 331 332 331 331 331 331 331 332 331 332 331 330 329 327 326 325 324 323 322 320 320 321 322 324 323 324 328 331 334 336 336 336 335 334 334 332 332 332 329 327 327
338 338 339 338 338 339 338 337 337 336 336 337 338 337 336 338 340 340 340 341 341 340 339 338 336 335 334 333 333 333 332 333 333 333 332 331 331 329 331 331 331 332 331 330 330 329 329 329 330 330 330 330 330 330 329 328 326 325 324 322 320 320 319 319 319 320 322 323 324 325 327 333 333 335 336 334 332 334 333 332 330 329 329 329 328
337 337 337 338 338 337 336 336 336 336 336 337 337 337 334 334 337 338 338 339 338 337 337 335 330 328 328 328 327 327 326 326 325 327 328 329 328 326 329 330 331 331 330 329 328 327 327 327 327 328 328 328 328 327 326 326 325 323 321 320 318 316 316 317 318 320 321 324 325 326 329 333 334 333 336 334 334 333 331 330 329 328 326 326 327
337 337 337 337 337 337 336 337 337 337 337 337 338 338 335 333 333 333 333 334 334 334 333 327 323 322 321 321 322 324 323 323 323 323 321 322 321 323 327 329 329 329 328 327 326 325 325 325 324 324 323 322 320 321 321 322 322 321 319 317 314 313 313 315 316 318 321 323 326 327 330 329 333 334 333 332 331 332 330 327 327 327 327 327 326
335 336 338 338 337 337 336 337 337 337 338 338 338 338 336 336 337 336 335 332 331 328 328 327 326 323 321 321 322 322 322 321 322 323 321 321 321 321 323 326 327 327 326 326 325 324 324 324 323 322 320 318 314 309 311 315 316 316 315 313 311 311 311 312 314 317 319 322 325 328 329 331 331 333 332 332 331 328 326 326 326 326 325 324 324
331 334 336 338 338 338 337 337 338 338 338 338 338 337 337 338 338 337 335 331 330 329 328 326 325 322 322 321 320 321 321 321 321 321 320 318 320 320 322 324 325 325 324 323 322 322 322 321 320 318 316 313 307 306 307 307 308 311 310 309 308 309 310 311 313 317 320 323 325 327 329 329 330 332 332 331 328 326 326 325 324 324 324 323 323
331 333 333 337 338 338 338 338 337 338 339 339 339 337 338 338 338 338 336 334 332 331 328 327 325 323 322 321 321 320 320 320 321 321 319 318 318 319 320 319 318 316 314 313 318 319 319 317 315 313 309 306 305 305 306 306 306 307 307 307 307 307 308 309 311 314 318 322 324 327 328 329 330 330 331 328 327 326 325 325 325 323 322 322 322
329 329 331 333 335 338 337 338 338 338 339 339 338 338 339 338 338 337 336 334 333 332 330 327 325 323 323 322 321 320 319 319 318 317 317 315 314 314 314 312 309 307 308 304 303 304 304 303 303 304 303 304 304 304 305 305 305 305 305 305 306 306 307 307 310 312 315 321 322 325 327 328 330 331 330 329 327 325 325 324 323 322 320 320 320
320 326 329 331 332 336 336 336 338 338 339 339 339 338 338 337 337 337 336 334 334 333 331 329 326 324 324 323 320 319 318 318 317 316 315 314 312 310 309 308 307 306 305 302 302 302 301 302 302 301 301 302 302 303 304 305 304 304 304 304 304 304 304 305 308 309 311 315 321 323 325 327 328 329 328 328 326 325 324 324 323 322 321 320 319
321 326 327 329 330 332 335 334 336 337 338 339 339 337 337 338 337 337 336 335 335 334 332 329 328 326 326 324 321 319 318 318 316 315 313 312 310 309 307 308 307 304 303 302 301 301 301 301 301 300 301 302 301 302 303 303 303 303 302 302 302 302 302 304 305 306 308 310 316 322 324 326 327 328 327 327 326 325 323 323 323 322 320 320 319
320 323 324 327 327 329 333 331 335 335 336 338 338 337 337 337 337 334 336 334 335 334 333 331 329 327 328 324 321 320 318 317 316 314 312 310 309 308 308 308 306 303 302 302 301 300 300 300 300 300 301 300 300 300 302 302 302 302 301 301 300 300 300 301 302 302 303 305 308 316 322 324 325 325 326 326 324 323 322 322 321 321 320 319 318
320 321 322 324 327 328 329 330 332 334 334 335 337 337 337 337 336 336 336 331 335 335 335 333 329 328 330 325 322 320 320 319 317 315 313 310 309 308 308 308 304 302 302 300 300 299 299 300 300 299 300 299 299 300 301 300 300 300 300 299 299 298 298 299 299 299 300 301 304 309 317 321 322 322 323 324 325 325 323 323 321 320 319 318 317
321 322 321 323 326 328 328 329 329 333 332 332 334 335 336 336 335 335 336 330 335 336 335 334 332 329 331 326 323 321 320 319 317 315 313 310 309 309 309 306 303 302 301 299 299 300 299 300 300 300 299 299 299 299 299 298 298 297 297 297 296 296 295 296 296 296 297 298 300 303 310 315 319 320 320 321 321 322 322 321 321 320 319 318 317
320 321 321 322 324 326 327 328 328 327 328 330 331 333 333 335 335 335 335 333 335 335 334 334 334 331 332 328 325 322 321 320 317 315 313 311 309 309 308 305 302 301 300 299 299 299 300 300 300 299 299 298 297 298 298 296 295 295 295 294 293 293 293 293 293 294 294 295 297 299 302 308 315 318 318 317 317 318 320 321 320 320 320 320 318
320 321 322 322 322 325 327 327 327 326 326 328 328 330 331 332 332 334 334 334 334 334 334 333 331 332 332 330 327 324 322 322 319 316 314 312 310 310 307 303 302 300 300 299 299 299 299 299 298 298 297 297 296 295 295 294 293 292 292 291 291 290 290 290 290 291 291 292 293 295 297 300 306 311 315 316 316 316 316 317 318 319 319 319 318
321 322 322 320 322 324 326 326 326 325 325 326 327 328 329 330 330 331 331 331 333 333 333 333 332 331 331 331 328 325 323 323 320 317 315 313 312 311 306 304 302 300 299 298 298 298 297 297 296 296 296 295 295 294 294 293 292 291 290 289 289 288 288 288 288 288 289 289 290 291 292 294 296 302 307 313 315 315 315 315 315 315 315 315 316
320 319 320 320 322 323 325 325 324 325 324 324 324 325 327 327 327 328 327 329 331 332 332 332 332 331 329 329 329 326 324 325 322 320 318 315 313 311 307 303 301 300 299 298 298 297 297 296 295 296 296 295 294 293 293 291 290 289 288 288 288 287 287 287 286 286 287 287 287 288 289 290 292 294 297 305 312 313 314 314 313 313 313 313 313
317 317 319 320 320 322 323 324 322 323 322 322 321 323 324 326 325 325 325 327 329 332 331 332 332 332 330 330 330 327 326 326 323 321 320 316 313 310 307 304 302 300 298 298 297 297 296 296 296 295 294 293 293 292 292 291 289 288 288 288 287 286 286 286 286 286 286 286 287 286 287 287 289 290 292 295 302 309 311 312 312 312 312 312 311
318 319 318 318 319 319 320 322 319 320 320 321 319 319 321 324 324 321 323 324 326 327 329 330 330 331 330 330 330 329 327 327 324 322 319 316 313 310 307 304 302 300 298 297 297 296 296 296 295 294 292 292 291 290 291 289 288 287 287 287 287 287 286 285 286 285 285 285 285 285 285 286 286 288 290 288 292 299 307 309 310 310 311 310 310
318 317 318 316 317 317 317 319 317 318 317 317 315 313 317 321 322 322 322 321 323 324 324 325 328 329 330 330 330 328 328 328 325 323 319 316 314 311 308 304 302 300 298 297 296 297 296 295 294 294 294 291 290 290 289 289 288 287 287 286 286 286 285 285 285 285 286 284 283 284 284 284 286 288 284 285 286 288 298 303 306 308 308 309 309
315 316 317 317 317 315 316 317 316 315 316 315 313 312 315 317 318 320 319 320 319 321 320 321 323 325 326 328 329 327 326 327 326 323 319 317 314 310 306 304 302 300 298 297 295 296 295 294 293 293 293 292 291 290 289 288 288 287 286 286 285 285 285 285 286 288 284 284 283 283 283 282 282 282 283 283 283 284 286 292 298 301 305 307 308
315 314 315 315 314 313 312 312 312 312 312 312 310 309 311 311 311 316 316 317 317 315 317 319 320 320 323 325 326 326 324 326 324 321 319 315 313 309 306 304 303 301 298 296 295 295 294 294 293 292 293 292 291 290 289 289 288 287 286 285 285 284 285 285 285 284 284 284 285 285 283 282 282 282 282 282 282 282 283 284 284 286 293 305 306
313 313 312 312 312 311 310 309 310 311 310 310 310 307 310 311 314 313 315 315 315 314 315 318 317 318 318 320 322 325 324 322 322 321 318 314 312 309 306 304 302 300 297 295 294 294 293 293 292 291 290 290 290 290 289 288 287 286 286 285 284 284 284 284 284 284 284 283 283 283 282 282 282 281 281 281 281 281 281 282 284 283 284 292 298
311 311 311 310 311 311 309 309 308 309 311 311 310 310 309 308 309 315 317 315 313 312 313 314 315 318 318 318 319 321 323 321 320 319 317 313 312 309 306 304 302 300 297 295 295 295 294 293 293 292 290 289 289 289 289 289 286 284 284 284 284 284 286 283 283 283 283 282 282 282 282 282 281 281 280 281 280 280 280 280 281 281 282 282 285
309 309 310 310 309 309 309 310 307 309 311 312 312 310 310 311 314 314 313 312 311 311 312 309 311 314 316 317 317 319 321 321 318 318 316 314 311 308 306 304 302 300 298 297 295 294 294 293 292 291 291 290 288 289 288 288 284 283 282 281 282 283 284 283 282 282 282 282 282 282 282 281 281 281 281 280 280 279 279 279 280 280 280 281 282
309 309 310 308 308 308 309 308 308 309 310 310 311 311 307 305 307 304 310 306 306 308 306 303 304 310 312 315 316 317 319 319 319 317 315 314 311 308 306 304 303 300 298 296 295 293 293 293 292 291 289 288 288 289 288 287 283 283 283 281 278 279 283 282 282 283 283 282 282 282 282 281 281 280 281 280 280 279 280 279 279 280 280 280 281
306 306 307 308 308 307 307 307 308 308 309 309 309 306 305 302 301 303 302 303 302 303 305 304 303 306 309 311 314 316 317 318 318 316 315 314 311 309 307 304 303 301 299 296 294 293 293 292 292 291 290 286 287 287 288 285 286 284 280 279 278 277 277 279 279 281 281 282 282 282 282 281 280 281 280 280 280 279 279 279 279 279 279 280 280
306 307 307 308 309 308 308 307 307 307 307 307 306 304 304 301 301 300 300 302 303 303 304 304 305 305 308 310 313 313 316 316 316 315 314 313 311 310 307 305 303 301 299 296 294 293 293 293 292 291 289 288 286 286 287 286 286 285 283 278 276 277 276 276 280 280 281 282 281 281 282 281 281 281 280 279 279 279 279 279 278 279 278 279 279
306 307 307 308 307 307 306 306 306 306 306 305 305 305 305 303 301 301 301 303 304 304 305 306 303 304 307 307 308 311 313 314 315 315 313 312 311 309 307 305 303 301 299 297 295 294 293 294 293 291 290 290 288 286 285 286 286 284 283 282 281 279 277 278 280 276 281 280 281 281 282 281 281 281 280 280 280 280 280 279 278 278 278 278 279
306 304 304 306 305 305 305 305 306 305 305 304 305 305 305 303 303 304 304 306 307 306 306 306 305 305 305 305 307 308 311 313 313 314 313 311 311 309 307 305 303 301 299 297 295 294 294 294 293 292 291 290 289 286 285 285 285 283 284 285 284 281 282 281 277 278 277 279 280 280 281 281 281 281 281 280 280 279 280 279 278 278 278 278 278
303 302 303 304 305 305 305 305 304 304 304 304 304 306 306 304 303 304 304 306 307 307 306 305 306 305 304 304 304 306 308 311 312 312 312 311 310 308 307 305 303 302 299 298 297 295 294 294 293 292 292 291 289 287 286 286 284 284 283 284 282 281 284 280 281 281 279 278 278 279 279 281 280 280 281 280 280 279 279 279 278 278 277 278 277
302 303 304 304 304 303 303 302 303 302 302 303 304 304 306 306 305 305 304 305 306 306 305 304 304 304 304 304 303 304 305 308 310 311 311 310 308 308 307 305 303 302 299 299 297 296 294 293 292 291 291 290 289 289 287 286 285 284 284 280 280 280 281 278 280 278 278 277 278 279 279 279 280 280 280 280 280 280 280 278 278 278 279 279 278
300 300 301 300 301 300 301 302 302 302 302 302 303 303 304 303 304 304 304 304 305 304 304 303 303 303 303 303 303 302 303 304 307 309 310 310 309 308 307 305 304 302 299 299 298 296 294 293 292 292 291 290 289 289 288 288 286 284 287 283 280 279 280 280 279 278 279 279 279 279 279 279 279 280 280 279 279 279 279 279 279 279 278 278 277
298 299 300 300 300 301 301 302 302 302 302 302 302 303 303 303 304 304 304 304 306 305 303 303 303 302 303 303 302 302 302 303 304 306 309 309 309 308 307 306 305 302 300 300 298 296 295 294 293 292 291 290 289 289 289 289 286 286 286 284 284 283 283 282 280 280 279 277 278 278 279 280 280 278 279 279 280 279 279 279 279 278 278 278 277
Wind_Speed
5 6 3 6 8 10 12 12 12 13 13 14 13 13 13 13 13 14 14 14 14 15 16 15 15 15 16 16 17 17 17 17 16 15 16 15 14 17 19 19 19 21 21 20 19 20 20 21 21 21 20 20 20 20 20 20 20 20 21 19 19 20 20 19 18 19 20 21 22 22 22 22 23 22 21 23 22 21 20 20 17 13 11 18 25
9 4 3 4 9 10 12 12 13 13 13 14 13 13 13 13 13 13 13 14 14 15 15 15 15 15 15 16 17 17 18 17 17 16 14 14 12 17 19 19 21 22 20 20 20 20 20 21 21 20 20 20 20 20 20 21 23 22 20 20 20 21 20 19 18 17 17 18 20 21 21 24 23 23 22 22 22 22 21 22 19 12 11 23 24
7 5 3 4 9 10 11 12 13 14 14 14 14 13 13 13 13 13 14 14 14 14 15 15 15 15 16 16 16 16 17 17 17 16 15 13 17 17 18 20 22 22 20 20 20 21 20 21 20 20 20 19 19 19 19 21 21 22 21 20 20 21 19 18 17 15 15 14 15 17 18 22 23 23 23 22 22 22 19 23 23 20 16 26 23
9 5 3 5 9 9 11 12 14 14 14 14 14 13 13 13 13 14 14 14 14 14 14 14 15 15 16 16 16 16 17 17 17 15 16 17 17 19 17 19 22 21 20 20 20 21 20 21 20 19 19 19 19 18 18 19 20 21 21 21 19 19 18 17 16 16 15 14 12 7 6 9 14 23 24 24 23 22 19 22 24 25 26 24 24
8 6 3 3 5 8 11 12 13 14 14 14 14 13 13 13 13 13 14 14 14 14 14 15 15 15 15 15 15 16 16 16 15 17 18 17 18 17 18 18 23 21 21 20 21 20 21 20 21 21 20 20 19 18 17 19 20 21 20 20 20 18 17 16 16 16 15 14 12 7 5 6 9 21 22 24 24 21 20 22 22 22 23 25 25
8 6 4 4 4 7 12 13 14 14 14 14 13 13 13 13 13 13 14 14 14 14 15 15 15 14 14 14 14 15 15 16 15 16 19 18 18 18 17 20 23 21 21 20 20 21 20 20 21 21 20 19 19 19 20 20 20 21 21 19 18 17 16 16 16 15 13 12 10 6 6 5 8 12 24 23 23 20 22 23 22 21 22 25 23
9 5 5 4 4 7 11 13 14 14 14 14 13 13 14 13 13 13 13 14 14 14 14 14 15 15 15 14 14 14 14 14 15 16 17 18 18 17 18 21 21 21 20 19 19 19 20 20 20 20 20 19 19 18 18 20 20 21 20 19 17 17 17 16 16 15 13 8 6 6 6 6 7 8 22 21 22 23 23 23 22 21 22 21 21
6 6 5 5 5 7 11 13 14 14 14 14 13 13 13 14 13 13 13 13 13 14 14 14 15 15 15 15 14 14 14 14 15 16 16 17 18 18 19 20 20 21 19 19 20 20 20 20 20 20 20 19 20 20 19 18 20 21 20 19 18 18 17 17 15 14 13 7 6 7 7 7 8 8 20 22 23 24 23 24 22 23 23 24 19
7 6 6 5 5 9 11 11 14 15 15 14 14 13 13 14 13 13 13 13 13 14 14 14 14 15 15 15 14 14 14 14 14 16 17 17 18 18 19 20 20 19 18 18 19 19 19 19 19 18 19 20 19 20 20 19 19 20 21 20 19 18 17 17 15 13 8 7 7 7 8 8 9 10 19 24 24 24 22 20 20 24 24 22 22
7 6 6 5 5 9 10 12 15 15 15 14 14 13 13 13 14 13 13 13 13 13 13 13 14 14 15 15 14 14 15 15 14 15 15 15 16 17 19 18 19 18 17 18 18 18 18 18 17 18 18 19 19 20 21 20 20 20 21 20 19 18 18 17 14 10 8 7 7 6 8 11 7 9 19 24 26 26 24 21 17 18 19 24 26
8 6 5 5 6 10 11 12 12 13 15 14 14 14 13 13 14 14 14 13 13 13 13 13 14 14 14 14 14 14 14 14 14 14 16 16 16 17 17 17 17 17 16 16 18 18 18 17 18 18 18 18 20 20 21 21 21 21 21 20 19 18 17 16 14 7 8 8 8 8 11 15 9 9 22 25 26 26 24 25 24 23 26 27 26
8 6 5 5 8 11 10 11 12 13 13 14 14 14 13 12 13 14 14 13 13 13 13 13 14 14 15 15 14 14 14 14 14 14 14 15 15 16 16 16 16 16 16 16 17 18 18 17 18 18 18 18 19 20 20 19 20 20 20 19 18 16 14 11 7 7 7 8 8 7 6 8 10 15 23 26 25 26 26 25 25 24 28 27 27
7 7 5 5 5 9 10 11 11 11 12 13 14 14 14 13 13 14 14 13 13 13 13 13 13 13 14 14 14 14 14 14 15 15 15 15 16 15 15 15 16 16 16 16 17 17 18 17 18 18 18 18 19 20 20 19 19 19 18 17 16 15 12 10 7 8 8 8 7 7 8 9 9 20 24 25 25 26 25 27 25 28 27 27 26
8 7 6 5 4 7 10 11 11 11 11 13 14 13 13 14 13 13 13 13 13 13 13 13 13 13 14 13 13 14 14 14 14 15 15 15 15 15 15 15 15 16 15 16 16 18 18 17 18 18 18 19 20 20 20 20 19 18 17 17 15 14 11 8 6 6 7 8 8 8 7 8 8 22 23 25 24 26 25 26 27 27 27 27 27
9 8 7 5 5 5 9 10 10 11 11 11 11 11 13 14 13 13 13 13 13 13 13 13 13 13 13 13 13 13 14 14 14 14 15 15 15 15 15 15 16 16 16 16 17 18 17 17 18 18 19 19 20 20 20 19 18 18 17 16 15 13 11 6 6 6 7 7 7 8 7 8 20 24 24 24 26 26 26 26 26 27 26 27 28
11 10 8 6 5 5 5 8 10 10 10 10 10 11 12 13 13 14 13 13 14 13 13 13 13 13 13 13 13 13 14 14 14 15 14 15 15 15 15 15 16 16 17 16 17 18 17 18 17 18 19 19 20 19 19 19 18 17 17 16 14 13 12 7 6 6 5 6 7 7 8 10 20 25 23 26 25 25 26 26 27 27 28 28 27
8 9 9 7 7 5 5 5 6 10 10 10 10 11 11 12 13 13 12 12 13 14 13 13 13 13 14 13 13 13 13 14 14 14 14 15 15 15 15 16 16 16 17 17 18 17 16 18 18 18 19 19 19 19 19 19 18 17 17 16 15 14 12 10 7 5 6 5 4 5 5 8 20 23 25 26 27 27 27 27 27 28 28 27 27
7 9 9 8 7 6 5 4 5 6 6 8 9 10 11 12 12 12 12 12 13 13 12 11 12 12 11 11 11 11 12 13 14 14 15 14 15 15 16 16 17 17 17 17 17 16 16 17 18 18 19 19 19 19 19 18 18 17 16 16 15 14 11 10 7 6 6 5 5 3 6 14 23 24 26 27 27 28 29 29 28 29 27 26 26
7 8 8 8 7 6 6 5 5 4 5 5 5 8 12 12 12 12 12 12 12 12 13 12 11 11 11 11 11 11 10 11 11 12 12 12 12 13 15 16 17 17 17 18 17 17 18 18 18 18 18 19 19 18 18 18 17 17 16 15 14 12 13 9 7 7 7 7 6 5 5 20 23 27 27 27 27 29 32 30 29 29 28 27 26
7 7 7 7 7 7 5 5 4 4 4 5 5 6 9 12 12 12 13 12 12 12 12 12 12 11 10 11 11 10 10 9 12 10 12 12 11 10 14 16 17 17 18 18 17 17 18 18 18 18 18 18 18 18 18 18 17 17 16 15 14 14 9 7 7 8 7 7 8 10 13 22 26 25 26 31 31 31 30 27 28 28 27 26 26
5 7 7 7 7 8 8 6 6 7 6 5 5 6 8 12 11 12 13 13 12 12 12 13 12 11 10 10 10 7 6 6 7 7 9 7 10 12 13 16 17 17 17 17 17 17 18 18 18 19 19 19 17 18 17 17 17 17 16 14 13 9 7 7 7 6 7 6 7 9 18 20 23 29 28 28 30 29 29 27 27 27 27 26 26
7 7 8 8 8 8 8 7 6 7 7 5 5 5 6 8 8 8 8 10 10 10 10 8 8 7 10 8 6 6 6 6 6 6 6 7 9 12 13 14 16 15 15 16 16 17 17 18 18 18 18 16 14 9 9 13 16 16 15 13 10 7 7 7 7 6 6 6 7 12 18 20 25 26 30 29 29 29 28 27 26 26 26 26 26
7 7 7 10 8 7 8 8 8 7 8 7 5 5 7 5 6 8 7 8 8 9 8 9 6 7 6 6 5 5 5 5 6 6 6 8 9 12 13 14 14 13 14 15 16 16 17 17 18 17 16 14 9 7 7 7 8 13 12 10 7 7 7 8 7 6 6 6 6 13 16 23 26 28 28 29 28 27 25 25 24 25 25 26 26
9 8 8 7 9 8 10 9 9 9 8 6 6 6 6 7 6 6 6 7 7 7 7 7 7 6 6 6 5 5 5 5 8 11 9 6 7 10 13 14 14 13 14 9 12 14 16 16 16 14 10 6 7 6 7 7 7 7 8 7 7 7 8 7 6 6 6 6 5 13 19 25 27 27 27 26 25 25 25 25 25 24 24 25 25
8 6 6 7 8 9 9 9 9 9 8 7 7 7 6 6 6 6 6 7 7 7 7 6 7 7 6 6 6 5 5 6 5 6 6 6 5 5 6 6 6 7 9 7 7 7 7 7 7 8 6 7 7 6 7 8 7 7 7 7 7 7 7 7 7 7 6 5 7 14 18 22 25 26 27 27 26 26 25 24 24 23 23 24 24
3 7 9 8 8 8 9 8 9 9 9 7 7 7 7 7 7 7 7 7 7 7 7 7 7 7 6 6 6 7 6 6 5 5 6 6 6 5 5 5 6 6 5 7 6 6 6 6 7 7 6 6 7 5 6 7 8 7 7 7 7 7 7 7 7 7 6 5 8 14 14 19 23 24 24 26 25 25 24 24 24 23 23 23 23
8 10 9 8 7 6 8 8 9 9 10 8 7 7 7 7 7 7 8 7 7 7 7 7 7 8 7 8 8 6 6 6 6 5 5 5 6 6 5 5 6 6 5 7 7 6 6 7 7 7 6 7 7 5 6 7 8 8 7 7 7 7 7 7 7 7 7 7 8 18 18 20 23 25 25 25 23 23 23 23 23 23 23 23 22
7 9 9 9 8 10 9 7 9 9 8 9 8 8 7 7 8 8 8 8 8 7 7 8 8 8 8 8 8 7 7 6 6 6 6 4 6 5 5 5 5 5 5 6 8 6 7 6 7 7 8 7 7 5 6 7 7 7 8 7 7 7 7 7 7 7 7 7 8 12 17 17 19 22 22 22 22 21 21 20 22 22 22 21 21
10 10 9 10 11 10 9 9 8 10 8 8 9 8 8 7 8 8 8 9 7 8 8 9 8 8 8 9 8 8 7 7 7 7 6 6 5 6 5 6 5 5 6 5 7 8 7 7 7 7 7 8 7 6 6 7 6 6 7 7 7 7 6 7 7 7 7 7 7 13 15 15 17 19 20 22 22 22 22 22 22 21 20 20 20
13 10 9 10 9 10 11 12 10 10 9 8 8 7 8 8 9 8 7 8 8 7 9 8 8 8 8 8 9 8 9 8 8 7 8 7 6 5 5 6 6 6 6 7 5 7 8 7 7 7 7 7 7 5 6 7 7 6 6 7 7 7 6 7 7 7 6 7 8 10 19 18 16 18 18 18 19 19 19 19 19 20 20 20 19
8 11 10 9 9 10 11 11 9 8 8 9 8 8 8 9 8 8 7 9 8 8 8 8 8 9 8 10 9 8 8 8 8 8 7 8 7 6 6 5 6 6 6 6 5 7 7 7 7 7 7 7 7 5 6 7 7 7 5 8 6 6 7 6 6 6 7 7 7 8 12 18 16 15 15 15 16 16 18 18 18 17 18 19 18
11 13 11 8 9 12 12 10 10 8 9 9 8 8 9 8 8 8 8 8 8 8 7 7 8 9 9 10 9 8 8 8 10 9 9 8 8 6 6 7 6 6 6 6 7 6 7 7 8 7 7 8 7 6 5 8 7 6 5 7 6 7 6 6 7 7 7 7 7 7 8 9 15 17 14 16 16 15 15 16 16 17 17 17 17
10 11 10 9 12 11 11 11 10 8 9 9 9 8 8 8 8 8 8 8 8 8 8 8 8 7 8 10 10 11 9 9 9 10 9 9 9 8 6 6 7 6 6 7 8 7 8 8 8 8 7 7 8 7 6 7 8 6 6 6 6 6 5 6 6 7 7 7 7 7 7 7 7 12 16 14 15 15 15 15 15 15 15 16 16
9 7 8 11 10 8 8 8 9 11 10 8 7 7 7 7 7 7 7 8 7 8 8 7 8 8 8 9 9 10 10 9 10 8 8 9 9 9 9 7 6 7 8 9 9 8 8 9 9 9 8 8 7 6 8 8 6 5 6 5 6 6 5 7 6 6 6 6 6 7 6 7 7 7 8 12 13 15 16 16 15 15 14 14 14
6 7 12 12 10 9 8 8 10 10 10 9 9 8 6 7 7 7 7 7 7 8 8 8 8 8 8 9 10 9 10 10 10 10 9 8 8 9 8 8 8 8 8 7 9 8 8 9 8 9 8 8 7 5 6 8 7 7 5 5 7 5 5 7 6 6 6 6 6 6 7 6 6 6 6 6 11 14 14 14 13 13 13 13 12
11 11 9 8 10 9 9 9 9 10 10 10 8 7 7 6 6 7 6 7 7 7 8 8 7 8 9 8 10 10 11 10 11 10 9 9 9 8 8 8 9 8 7 7 7 10 8 8 7 9 10 8 9 7 6 8 6 7 5 5 5 6 6 5 6 7 5 6 6 6 6 6 6 5 5 6 7 9 16 13 13 12 12 12 12
9 8 10 9 9 9 10 10 11 11 9 8 6 5 5 6 7 7 7 7 7 7 6 6 7 7 7 8 9 10 11 11 11 12 10 10 9 8 7 9 9 8 8 8 7 7 10 8 7 5 8 10 9 9 7 7 7 6 6 6 5 5 6 5 5 5 5 7 6 5 5 6 4 5 5 6 6 6 11 16 14 12 11 11 11
7 8 9 12 12 10 10 10 8 8 8 8 7 7 6 5 5 6 6 7 7 6 6 6 7 7 7 8 9 9 10 10 11 12 10 10 10 10 9 9 9 9 8 8 7 8 8 10 10 7 7 11 10 10 8 7 6 6 6 6 5 5 5 5 5 4 6 6 6 6 5 3 4 5 5 6 6 6 6 9 12 13 10 11 12
7 8 8 7 7 8 7 7 8 7 7 6 5 5 5 4 3 5 6 6 6 5 6 7 7 6 7 8 8 8 9 11 10 11 11 10 9 10 11 11 9 9 9 8 8 9 9 9 11 9 5 6 11 10 10 8 8 6 7 6 5 5 4 4 5 5 5 5 5 4 3 4 4 4 5 5 5 5 6 6 6 6 7 11 12
7 7 8 7 8 6 6 6 7 7 5 5 5 5 5 6 6 3 6 7 6 6 5 7 6 6 6 6 6 7 9 10 10 10 11 11 10 10 11 11 10 10 11 10 9 10 13 12 11 12 10 7 7 10 11 12 9 9 7 6 5 4 4 4 5 5 5 5 4 3 4 4 5 4 4 4 5 5 5 5 5 5 5 8 11
6 8 8 8 9 10 9 10 7 6 8 8 7 7 6 5 3 8 9 6 6 5 6 5 6 6 6 5 6 6 7 10 11 11 11 11 11 10 11 11 11 11 12 13 13 12 10 11 11 9 13 11 8 8 9 12 14 7 6 6 6 4 3 4 4 4 4 3 3 4 4 5 4 4 3 5 4 5 4 4 4 4 4 4 5
8 8 11 11 9 8 11 10 7 8 9 9 8 7 6 6 7 7 6 5 6 7 7 5 5 4 4 5 5 5 6 9 10 10 11 11 10 10 11 12 11 10 9 9 11 11 12 11 11 10 7 12 10 12 12 13 4 9 10 5 4 4 3 4 3 3 3 3 3 4 4 4 4 3 3 5 4 3 3 3 2 3 2 3 3
9 11 9 8 9 10 10 9 9 9 8 8 8 8 4 2 4 3 6 4 1 1 2 3 3 5 5 5 5 5 6 7 9 10 10 11 11 11 12 12 12 11 10 10 11 12 12 14 15 14 11 4 7 7 11 1 9 6 6 9 4 3 0 1 1 1 1 3 3 4 3 3 4 3 3 4 4 3 2 2 2 2 2 2 2
7 6 8 10 8 9 8 9 9 9 8 8 7 3 3 3 2 3 3 3 3 1 2 1 3 4 7 5 5 6 6 7 8 9 9 11 12 12 11 12 12 11 12 13 13 13 12 12 11 11 13 12 9 10 9 4 11 16 6 3 5 5 3 6 3 1 1 3 4 4 3 4 3 3 3 5 4 3 2 2 2 2 2 1 1
9 10 10 10 9 11 10 10 9 9 6 5 5 5 5 4 5 5 3 3 3 2 2 4 6 5 4 7 8 5 6 7 8 9 9 11 11 11 11 11 12 12 10 12 13 15 15 14 15 14 15 15 13 9 10 7 11 4 11 8 3 0 6 4 6 0 1 2 2 4 3 4 4 4 4 4 3 3 3 3 2 1 2 1 1
9 9 8 8 7 8 8 7 6 6 7 6 6 6 6 7 6 6 5 4 5 6 9 9 5 6 6 1 2 6 6 6 7 9 9 10 12 12 11 12 11 11 11 12 12 11 12 13 14 15 14 11 14 12 10 6 11 6 4 0 6 9 9 7 8 5 0 1 3 4 5 6 4 4 4 4 4 4 3 3 2 3 2 1 1
9 5 5 6 6 6 7 7 7 6 6 6 7 7 7 7 8 9 8 9 8 6 3 1 5 4 3 5 5 4 5 7 8 8 9 10 10 10 11 11 11 11 10 10 11 13 13 14 13 12 13 11 10 13 14 11 7 7 5 2 0 1 12 14 7 6 3 3 3 4 4 5 5 5 6 5 5 4 3 3 3 3 3 2 2
5 5 6 5 8 8 8 8 6 6 5 6 7 8 8 7 7 8 8 9 10 9 7 4 4 4 5 6 5 5 6 6 8 8 9 10 10 9 9 10 10 10 10 11 13 13 11 10 13 14 11 11 14 13 13 11 15 11 7 4 2 4 10 2 6 11 8 11 6 2 2 6 4 6 7 7 6 6 5 4 4 3 3 3 3
6 8 9 7 6 4 4 4 6 5 5 6 7 7 7 8 8 8 8 7 5 4 4 4 5 6 7 6 6 6 6 6 8 9 9 10 10 11 11 11 11 11 11 10 11 14 16 16 14 11 11 10 11 10 11 12 11 9 8 3 4 5 5 2 5 3 5 6 2 9 6 1 3 5 6 5 6 5 5 6 5 4 4 4 4
3 3 3 3 4 4 5 6 6 6 6 7 8 8 8 7 8 8 9 7 4 3 4 5 5 5 8 7 7 6 6 6 7 8 9 10 10 10 11 13 13 12 12 12 13 13 13 13 15 15 14 14 10 11 13 11 12 7 7 7 6 5 4 3 3 3 3 2 9 12 9 12 11 8 6 6 6 6 6 6 5 5 5 5 4
3 4 4 4 4 5 6 8 8 7 8 9 9 10 9 8 9 9 9 9 8 7 6 6 6 6 8 9 8 8 7 7 7 8 9 9 10 11 11 12 12 11 12 12 13 14 13 13 13 14 13 15 12 12 10 9 10 8 8 8 9 12 12 10 12 9 6 4 4 5 6 9 7 5 7 6 6 6 6 6 6 6 5 5 5
Wind_Direction
182 166 196 168 149 133 130 128 124 123 116 112 106 103 101 99 94 89 86 84 83 82 80 79 79 79 79 78 76 74 73 76 77 78 76 79 78 82 83 80 80 74 72 73 73 76 79 81 79 75 70 69 71 71 73 73 76 78 72 68 71 72 72 64 58 59 63 68 70 71 70 71 68 66 65 63 66 69 66 63 64 65 65 64 64
163 173 174 168 150 141 134 128 126 123 118 113 109 107 105 102 97 92 89 87 84 83 82 81 81 81 80 79 79 79 78 78 80 82 85 86 94 86 84 83 78 76 75 74 74 76 79 80 77 73 71 72 72 72 73 76 78 76 73 72 75 76 72 66 61 59 63 68 71 70 70 72 70 69 69 70 70 70 70 68 64 65 64 64 64
141 150 180 163 150 143 136 133 128 126 122 118 113 110 108 106 102 98 95 91 88 85 83 82 83 82 79 78 80 81 83 84 85 87 94 97 79 85 84 85 82 79 77 76 76 79 82 80 74 70 68 68 67 66 69 81 83 79 75 74 75 77 71 67 64 59 57 55 60 64 68 71 72 72 72 71 70 71 69 71 68 67 69 68 67
138 154 167 155 145 142 137 134 130 127 125 120 116 114 111 109 106 103 99 95 91 87 86 84 83 83 81 80 80 81 83 86 87 91 78 73 78 78 84 89 87 82 79 77 79 83 83 80 75 68 62 57 56 58 68 77 82 83 78 73 74 76 69 63 57 52 47 47 47 42 61 73 75 74 74 73 72 69 67 69 68 68 71 70 69
139 150 157 148 143 142 135 131 131 129 127 123 121 120 115 111 109 107 103 99 96 93 89 86 86 84 84 84 83 83 84 84 86 85 78 77 78 82 83 83 84 82 80 79 84 86 85 77 71 65 55 55 58 64 74 81 81 81 81 77 75 74 69 62 52 42 36 34 35 38 48 67 76 75 76 76 76 76 74 73 72 71 72 71 71
145 151 150 141 137 137 135 135 134 134 131 127 124 123 119 115 112 108 105 103 100 97 94 91 90 87 87 86 84 84 88 89 89 82 82 85 83 82 82 83 83 82 81 84 87 88 84 78 72 68 62 60 68 74 77 79 76 77 81 79 74 68 59 53 47 41 35 30 26 30 25 45 74 78 78 78 80 84 82 81 79 78 75 73 72
146 151 147 145 141 145 142 140 137 136 134 130 129 126 122 119 116 110 106 103 101 99 98 97 96 94 91 90 89 88 88 90 90 84 83 84 90 89 87 82 81 82 83 85 88 87 84 79 76 73 71 69 70 74 80 79 78 78 77 74 70 64 59 53 49 46 44 39 37 32 35 37 57 72 81 77 75 76 75 76 75 72 72 69 69
138 146 149 150 149 155 146 142 139 138 137 133 131 129 126 123 119 115 110 109 105 102 101 102 100 99 98 97 95 93 92 90 92 98 95 88 84 84 83 85 86 85 86 89 93 93 88 82 77 72 72 75 77 79 80 82 81 81 77 74 68 62 57 52 48 44 43 44 39 43 46 45 62 75 78 75 76 77 76 77 76 74 68 65 60
146 149 148 150 156 155 147 142 141 141 139 136 133 134 130 125 121 116 114 111 108 105 104 103 104 103 102 100 99 96 95 94 90 94 92 88 86 84 83 84 85 86 88 91 97 95 89 82 73 65 67 72 76 78 79 82 83 80 79 75 69 64 60 55 48 43 40 40 42 51 50 54 65 74 82 82 78 74 71 70 69 71 69 68 68
148 145 152 153 156 154 146 146 144 142 140 139 137 136 134 128 124 120 118 115 112 109 107 106 106 104 103 102 99 97 95 93 93 93 97 95 94 91 86 83 84 86 88 94 99 96 90 80 67 64 63 64 77 82 79 80 80 82 78 75 72 67 65 59 50 43 46 40 38 53 67 71 62 76 86 82 80 78 75 75 77 76 74 71 70
146 148 151 153 156 154 154 147 144 144 144 142 140 138 136 133 130 127 125 122 118 114 111 109 107 106 103 102 100 98 96 94 92 91 92 92 88 87 86 88 90 93 92 93 99 96 90 75 69 64 62 63 74 86 85 83 84 82 78 76 73 69 65 63 61 48 46 45 47 52 70 74 74 87 86 88 85 81 79 75 74 73 74 70 68
147 149 157 155 157 158 158 148 145 146 146 146 143 141 138 138 134 131 128 125 122 116 113 111 110 108 106 104 103 101 101 100 98 97 97 99 99 97 96 92 94 94 92 93 96 96 89 76 71 64 59 62 74 85 89 86 83 79 76 74 70 67 63 59 57 57 52 50 53 62 56 65 70 82 88 85 84 81 77 75 71 73 69 68 66
150 152 155 156 157 165 156 151 147 149 149 148 146 142 141 139 136 133 132 129 124 118 115 113 111 109 108 107 106 104 103 103 102 101 101 100 102 99 94 96 96 96 94 93 97 96 89 77 70 63 63 66 73 79 84 82 78 75 73 70 66 62 59 55 57 57 58 57 56 55 63 69 78 85 82 84 82 81 77 74 72 67 66 66 64
151 154 155 154 155 160 154 153 150 151 153 151 148 145 143 141 138 137 135 131 126 122 118 115 113 112 111 111 110 110 109 107 104 104 104 104 100 99 97 95 95 97 96 96 98 100 91 79 70 69 71 74 76 78 79 80 78 75 70 66 61 57 51 52 45 56 62 63 62 58 63 83 93 86 81 78 80 77 74 72 68 67 65 63 61
155 157 152 150 153 155 157 155 153 156 157 152 147 146 145 144 143 142 140 136 131 126 124 121 119 118 116 114 112 111 110 109 108 105 103 101 100 99 98 96 97 96 96 97 104 103 89 78 73 76 77 78 79 80 81 79 76 72 70 66 62 55 50 51 47 50 58 66 72 79 82 80 84 82 80 82 79 77 75 73 71 68 65 64 60
157 155 149 152 151 154 158 160 158 157 155 151 149 148 146 143 145 146 146 139 135 132 129 127 124 122 120 118 118 115 113 111 110 107 104 104 102 100 100 100 102 101 99 98 103 102 90 80 78 80 80 81 82 81 80 78 75 70 66 62 57 54 54 56 51 49 50 60 73 71 82 90 88 84 84 81 81 80 78 74 71 68 63 62 59
161 149 151 151 153 153 160 161 160 154 150 152 152 146 142 145 146 148 149 143 139 136 133 130 127 126 126 122 118 116 115 114 112 110 107 105 103 103 103 105 104 104 103 102 102 88 86 83 81 82 82 83 82 81 79 76 72 68 64 59 55 51 49 52 54 48 57 58 70 78 71 88 89 88 84 82 80 79 76 73 72 69 65 63 63
159 153 156 154 155 156 155 153 153 150 147 150 151 147 145 146 149 150 149 145 143 140 134 132 131 125 120 117 116 115 116 115 114 112 111 106 106 107 107 106 107 107 107 105 104 96 87 84 84 83 83 83 83 81 79 76 71 67 62 58 54 49 48 53 55 49 55 56 57 76 84 89 88 87 86 84 82 80 75 71 67 67 67 66 67
157 159 157 157 159 158 154 151 160 150 147 152 154 153 149 147 148 150 149 149 147 141 138 133 123 122 122 121 117 112 109 107 106 105 105 100 100 102 107 108 108 108 108 108 105 94 87 84 83 84 84 83 82 80 78 75 70 66 61 55 48 46 46 48 46 48 50 50 44 50 90 93 90 85 83 85 78 74 71 69 70 70 70 70 71
161 159 162 169 161 160 141 150 151 164 136 148 151 154 149 147 150 151 152 152 149 145 137 129 126 123 119 115 111 106 101 102 104 102 101 100 102 106 109 109 110 111 110 109 100 93 89 85 83 82 82 81 79 77 75 74 70 65 60 55 49 45 42 40 44 48 52 57 63 68 75 87 85 86 81 76 74 74 74 73 73 74 74 74 72
166 172 170 171 169 164 165 166 169 171 168 160 158 149 155 150 151 152 153 152 149 143 133 126 122 120 118 116 111 108 110 106 100 105 100 102 106 108 111 111 109 110 109 104 99 95 93 90 87 84 81 77 72 67 66 70 69 66 61 54 50 46 39 40 42 46 52 60 73 79 82 86 86 81 79 80 78 78 77 75 75 76 76 72 71
171 174 178 168 173 175 172 173 170 173 167 157 161 157 146 153 154 154 154 151 145 135 131 132 129 128 126 121 119 120 116 112 109 105 106 106 108 112 110 111 110 107 107 104 99 96 96 93 90 87 84 79 70 68 63 61 62 64 59 55 51 45 39 39 42 45 49 56 77 84 85 84 83 84 82 80 78 77 75 75 75 75 76 75 71
178 176 181 172 178 177 177 177 178 175 168 167 165 157 161 119 145 156 154 150 145 142 141 137 138 138 136 129 124 123 121 119 117 113 112 112 113 114 113 112 109 100 97 97 96 94 94 93 89 87 83 77 70 69 69 68 60 58 59 55 52 46 46 41 42 45 51 62 80 96 94 85 84 86 85 83 83 80 79 78 78 77 77 77 75
183 183 177 173 176 179 179 178 180 179 175 174 167 165 163 155 159 157 154 152 150 149 147 145 144 145 139 133 128 124 120 114 117 114 108 105 108 111 113 101 87 84 83 74 76 83 85 82 83 81 74 72 77 70 76 72 66 63 63 58 55 51 49 43 46 43 48 61 73 84 88 88 87 86 88 86 84 85 84 83 82 81 80 80 79
183 163 174 186 186 176 171 180 178 181 181 174 170 171 167 161 162 158 158 157 156 154 153 151 150 148 144 138 135 128 122 123 123 122 118 114 110 113 109 98 101 96 93 91 88 81 76 78 72 69 71 76 77 71 83 80 71 69 66 61 58 54 52 44 45 42 32 55 75 81 88 90 90 90 91 91 89 90 88 87 87 85 83 81 80
167 179 191 188 197 182 169 178 180 183 182 178 175 167 165 169 154 163 162 165 164 158 158 158 157 153 150 142 133 129 131 129 128 125 127 129 125 124 112 108 103 105 103 103 96 93 87 87 84 79 72 72 72 72 75 88 86 75 69 62 59 58 52 46 44 43 30 30 62 71 83 95 95 93 93 91 89 88 88 88 86 85 83 82 80
194 200 189 195 196 196 177 175 183 182 182 174 172 169 178 174 170 170 168 170 168 161 164 163 165 161 157 151 143 144 143 142 136 137 136 138 135 135 123 109 111 109 112 112 104 98 99 95 92 88 87 80 70 69 76 80 85 86 75 69 62 61 57 51 47 42 34 34 51 72 74 84 94 95 91 90 90 88 88 87 85 84 83 81 79
194 201 196 196 199 200 192 178 183 181 183 177 176 177 181 177 172 169 177 174 169 169 167 170 167 169 163 161 153 152 152 149 149 147 149 146 145 142 126 111 111 113 117 115 116 108 103 97 100 97 95 89 85 69 74 77 78 84 84 73 69 59 59 55 51 42 39 36 34 54 86 83 88 91 95 99 99 95 88 85 84 85 83 82 80
204 204 197 196 202 199 196 192 187 182 178 181 182 180 179 182 172 178 180 174 180 173 174 168 170 173 170 165 162 156 158 155 158 157 150 153 150 146 130 124 123 128 123 115 120 119 110 109 104 105 100 99 94 89 88 76 72 73 85 78 72 65 60 58 49 45 39 38 40 37 48 82 88 87 91 91 92 94 93 93 91 84 80 80 78
208 199 193 202 197 193 195 197 189 186 178 179 184 184 179 185 179 183 180 173 184 178 173 172 174 172 175 174 172 165 164 160 161 161 157 157 157 145 128 134 133 137 127 124 126 120 121 115 111 109 108 101 94 88 93 90 81 72 74 82 69 69 63 63 53 46 46 39 39 39 34 43 68 92 95 96 94 95 94 92 91 88 85 81 78
194 204 203 199 192 190 197 195 190 185 176 185 183 186 180 185 182 181 179 180 182 181 178 176 175 178 177 178 176 173 165 160 159 165 164 157 158 148 138 136 133 137 130 121 120 121 119 118 119 117 111 103 95 89 93 89 83 76 72 79 72 71 67 60 61 54 51 44 44 41 37 33 36 59 78 87 91 92 92 93 90 91 89 87 83
197 207 202 187 184 195 193 193 189 183 179 189 181 183 186 185 183 181 186 182 182 184 180 178 181 179 179 178 177 176 171 165 164 167 164 160 159 149 147 144 145 142 131 128 120 118 117 112 105 105 108 106 103 94 87 97 84 79 79 79 74 75 69 67 67 58 55 51 46 46 43 35 32 34 52 80 86 88 90 88 94 95 93 89 85
213 204 193 184 192 190 190 193 188 186 186 190 186 185 182 180 183 186 185 183 186 183 184 182 182 182 183 181 180 175 174 166 171 169 166 161 158 150 150 149 148 143 132 128 121 119 116 114 110 113 102 101 103 100 96 89 94 82 82 82 86 77 75 75 69 61 58 52 49 49 48 43 35 31 34 47 73 82 89 95 95 91 91 92 91
201 194 182 197 192 188 188 187 192 192 193 191 188 183 186 183 181 185 185 185 186 185 190 187 180 179 178 183 181 178 175 172 167 171 167 161 159 158 154 149 150 143 136 136 132 134 128 124 129 123 121 117 113 114 112 100 90 88 81 88 84 84 87 80 73 71 68 62 54 55 49 47 40 38 37 31 57 81 85 83 82 86 92 93 90
184 187 194 195 184 188 183 192 192 196 192 194 193 192 184 183 182 185 186 184 187 188 186 188 188 184 176 182 182 181 181 171 172 166 167 162 160 157 156 154 150 147 143 148 138 135 133 134 138 126 124 117 113 108 106 108 107 97 91 92 91 91 79 86 81 76 68 68 62 57 52 47 46 43 29 36 39 48 73 83 90 94 94 95 93
194 193 188 181 190 188 187 189 188 194 197 195 194 190 188 183 184 184 184 189 186 192 187 188 189 184 181 183 184 179 185 177 172 170 163 164 162 162 156 149 151 146 141 142 140 138 137 134 137 136 129 123 120 117 109 104 99 95 86 81 90 86 86 79 82 80 71 71 66 62 55 55 49 44 40 41 43 34 42 69 82 82 80 83 86
193 181 184 181 189 188 189 188 190 194 194 193 183 179 178 184 184 184 187 185 191 194 191 185 183 186 182 181 185 182 186 182 176 174 166 164 160 153 151 151 148 146 144 147 146 144 141 136 134 135 134 130 123 120 114 108 102 91 85 78 63 82 78 83 84 89 82 75 72 66 64 51 50 48 46 50 48 36 36 42 47 57 70 79 80
187 188 188 184 187 185 189 191 188 187 186 184 177 169 178 172 179 184 182 189 193 190 187 179 188 188 183 184 182 183 186 184 180 174 168 166 161 154 149 153 148 145 147 152 151 146 142 142 137 143 145 135 130 128 119 106 100 97 82 74 66 67 72 79 83 80 85 85 71 69 63 60 60 56 55 57 52 47 41 33 31 26 44 79 81
182 184 182 189 179 184 183 188 178 179 180 170 159 139 141 140 151 174 189 195 193 189 179 186 184 184 190 181 182 182 184 184 185 173 158 156 155 153 153 159 153 150 152 151 151 153 147 147 142 137 140 137 135 132 125 116 99 89 83 69 72 64 68 73 76 83 79 87 90 84 77 63 73 58 62 59 55 55 50 38 30 24 15 72 83
176 176 180 178 180 176 181 177 183 175 160 159 150 142 140 161 165 175 203 206 192 186 196 190 177 180 184 172 175 183 175 170 169 171 161 157 157 160 157 160 160 157 159 157 161 167 160 152 149 141 134 118 115 129 130 119 100 86 81 67 54 65 65 73 77 78 82 80 96 108 100 80 73 70 65 63 63 59 55 45 43 27 20 25 38
180 180 179 185 182 179 169 189 183 173 168 171 177 168 167 168 186 195 202 190 192 190 194 195 191 181 170 172 173 180 174 167 168 165 166 162 161 160 158 165 166 168 168 171 168 166 160 151 142 140 139 135 135 140 136 126 118 84 69 71 56 39 56 71 79 84 86 97 102 105 88 83 70 77 69 69 67 64 62 60 52 46 33 31 18
202 182 190 191 181 175 185 182 172 184 189 184 180 185 190 193 182 194 179 173 183 190 200 204 195 183 175 174 183 183 184 171 170 168 162 162 159 162 164 166 167 173 172 163 158 157 157 152 147 138 157 149 153 159 158 131 111 145 139 118 65 50 57 55 67 74 101 104 108 95 91 99 100 91 77 79 72 75 77 77 79 68 50 43 36
184 192 193 175 183 186 191 181 184 185 193 188 175 190 181 161 157 164 170 164 256 241 189 179 183 187 194 190 192 192 189 183 175 169 165 167 164 166 172 167 173 167 160 161 164 167 168 162 163 153 149 154 141 168 177 276 129 116 101 96 151 95 166 54 32 70 123 129 109 108 112 114 118 107 107 97 102 106 104 105 108 109 91 74 62
182 191 187 190 189 193 190 188 190 190 188 192 185 162 134 101 72 109 107 115 177 120 102 125 194 197 205 198 211 202 194 184 181 173 170 170 168 175 175 171 172 176 169 164 171 172 168 165 162 157 149 147 170 183 199 189 152 136 145 162 174 116 117 247 177 217 156 163 141 140 140 139 133 122 107 123 137 132 131 130 140 150 132 112 72
194 194 190 192 193 195 193 190 187 190 189 176 169 138 112 84 70 53 62 67 52 114 140 219 211 206 201 202 213 206 203 188 183 179 174 174 174 175 178 176 171 175 174 170 174 177 176 173 167 160 169 162 168 173 194 193 191 194 131 124 79 270 213 179 129 221 130 153 185 159 160 155 157 156 144 155 148 159 151 146 167 156 158 168 122
203 204 196 197 189 189 186 186 184 183 180 172 164 153 161 157 145 144 162 189 200 194 206 207 202 207 214 185 222 217 210 194 190 183 181 179 179 180 180 174 175 174 177 176 174 168 169 169 177 173 174 183 166 168 181 218 207 211 237 13 153 171 169 174 139 199 77 243 181 184 176 179 170 160 166 165 166 175 175 168 170 175 183 175 180
215 184 193 197 196 185 185 184 186 183 173 169 167 165 169 174 181 185 186 194 205 219 218 210 191 201 176 203 214 220 216 197 194 191 185 185 183 180 178 178 175 175 173 170 173 175 176 180 177 181 182 169 167 173 180 187 208 262 248 277 67 132 137 143 188 89 161 257 195 184 213 199 180 169 175 183 182 174 188 182 180 187 190 187 184
188 178 194 195 196 191 181 185 181 177 175 165 175 180 183 182 186 195 198 203 207 209 185 184 173 172 196 209 207 213 216 208 192 190 189 181 178 176 176 172 173 176 171 176 179 180 179 183 187 186 176 177 179 179 180 173 183 207 198 195 83 123 156 62 149 165 157 164 208 247 253 196 202 199 183 182 187 184 181 190 193 199 194 203 190
185 194 198 200 196 180 169 163 175 172 177 173 177 191 192 190 195 200 214 223 220 212 169 169 179 181 199 206 207 210 213 215 199 189 186 184 180 178 176 177 178 178 180 183 185 183 182 180 182 183 183 185 191 191 173 184 200 194 147 134 125 142 137 50 129 69 139 138 157 186 187 169 230 231 211 193 187 183 187 190 196 191 196 203 200
206 199 202 175 177 161 168 171 185 176 177 181 184 190 193 186 198 207 215 217 206 193 180 190 195 189 205 207 207 206 209 212 205 194 188 187 182 180 181 182 182 181 183 185 183 185 187 188 186 187 186 186 191 186 187 187 196 186 192 146 140 131 104 92 158 121 61 113 165 192 187 174 194 214 185 197 191 194 191 193 197 195 204 206 210
193 184 192 186 175 174 177 186 190 179 180 185 184 192 193 194 202 204 209 211 203 193 195 204 195 197 212 210 208 207 202 210 201 201 194 187 187 184 186 187 185 182 183 185 187 186 187 188 190 191 190 189 189 190 192 195 192 183 174 174 172 171 172 174 183 190 155 150 92 166 170 197 194 161 209 185 190 196 193 195 195 200 202 211 212